[[{"header":{"parameterUnit":"m.s-1","parameterCategory":1,"la1":30.2991,"la2":30.254,"lo1":-89.0895,"lo2":-89.0444,"dy":0.0017,"dx":0.0017,"nx":28,"ny":28,"refTime":"2025-07-24T03:00:00:Z","depth":0,"parameterNumber":2,"parameterNumberName":"U-component_of_WINDS"},"data":[0,0,0,0,0,0,0,0,0,0,0,0,0,0,0,0,0,0,0,0,0,0,0,0,0,0,0,0,0,0,0,0,0,0,0,0,0,0,0,0,0,0,0,0,0,0,0,0,0,0,0,0,0,0,0,0,0,0,-3.5299,-3.5301,0,-3.5421,-3.5422,-3.5424,-3.5452,-3.5451,-3.545,-3.5449,-3.5571,-3.5575,-3.5579,0,0,0,0,0,0,0,0,0,0,0,0,0,-3.5087,-3.5091,-3.5299,-3.5301,-3.5302,-3.5421,-3.5422,-3.5424,-3.5452,-3.5451,-3.545,-3.5449,-3.5569,-3.5574,-3.5579,0,0,0,0,0,0,0,0,0,0,0,0,0,-3.5191,-3.5092,-3.5299,-3.5331,-3.5335,-3.542,-3.5423,-3.5425,-3.5452,-3.5451,-3.5449,-3.5448,-3.5568,-3.5574,-3.558,-3.5642,0,0,-3.5598,-3.5601,0,0,0,0,0,0,0,0,-3.5185,-3.5199,-3.5324,-3.5329,-3.5333,-3.542,-3.5392,-3.5497,-3.5452,-3.5407,-3.5449,-3.5448,-3.5521,-3.5531,-3.5557,-3.5648,-3.5653,-3.5598,-3.5602,-3.5605,-3.5606,0,0,0,0,0,0,0,-3.5178,-3.5194,-3.5347,-3.5326,-3.5332,-3.5337,-3.5351,-3.5412,-3.547,-3.5411,-3.5413,-3.5428,-3.5523,-3.5551,-3.556,-3.5655,-3.5598,-3.5604,-3.5607,-3.561,-3.58,-3.5801,0,0,0,0,0,0,-3.5166,-3.5187,-3.5344,-3.5351,-3.5255,-3.5342,-3.5357,-3.5393,-3.5469,-3.548,-3.5429,-3.5428,-3.5541,-3.5553,-3.5564,-3.564,-3.5605,-3.561,-3.5614,-3.5798,-3.58,-3.5802,0,0,0,0,0,0,-3.5161,-3.5179,-3.5339,-3.527,-3.5291,-3.5347,-3.5388,-3.5396,-3.5424,-3.5482,-3.5492,-3.5446,-3.554,-3.5556,-3.5622,-3.5644,-3.5613,-3.5619,-3.5797,-3.5799,-3.5801,-3.5793,0,0,0,0,0,0,-3.5155,-3.5177,-3.5203,-3.527,-3.5294,-3.5396,-3.5389,-3.54,-3.5434,-3.5435,-3.5501,-3.5511,-3.5541,-3.5613,-3.5628,-3.5652,-3.5623,-3.5795,-3.5798,-3.58,-3.5791,-3.5795,-3.5797,0,0,0,0,0,-3.5147,-3.5196,-3.5204,-3.5223,-3.5327,-3.5397,-3.541,-3.5444,-3.5436,-3.5461,-3.5498,-3.5509,-3.564,-3.5619,-3.5637,-3.5663,-3.5793,-3.5797,-3.58,-3.579,-3.5794,-3.5797,0,0,0,0,0,0,-3.5129,-3.5205,-3.5215,-3.5287,-3.5335,-3.5402,-3.5434,-3.5448,-3.5498,-3.5497,-3.5536,-3.5551,-3.5614,-3.5646,-3.5621,-3.5726,-3.5716,-3.5723,-3.5703,-3.5707,-3.571,-3.57,-3.5628,0,0,0,0,0,-3.5133,-3.5185,-3.5248,-3.5306,-3.5329,-3.5377,-3.5409,-3.5431,-3.5482,-3.5502,-3.5545,-3.5593,-3.5645,-3.5678,-3.5729,-3.5797,-3.581,-3.5823,-3.5826,-3.5828,-3.5833,-3.5868,-3.5874,-3.5812,-3.5812,-3.5812,0,0,-3.5143,-3.5191,-3.5221,-3.5303,-3.5343,-3.5393,-3.5394,-3.5449,-3.5486,-3.551,-3.5575,-3.5608,-3.5664,-3.573,-3.5762,-3.5759,-3.5853,-3.5832,-3.5833,-3.5837,-3.5872,-3.5878,-3.5883,-3.5814,-3.5814,-3.5814,0,0,-3.5185,-3.5228,-3.5279,-3.5319,-3.538,-3.5411,-3.5423,-3.5487,-3.551,-3.5576,-3.5595,-3.5639,-3.5728,-3.5767,-3.5798,-3.5853,-3.5864,-3.5869,-3.5884,-3.5918,-3.5923,-3.5927,-3.5945,-3.5951,-3.5874,-3.5874,-3.5874,0,-3.5189,-3.5267,-3.5304,-3.5357,-3.5391,-3.5416,-3.5467,-3.5504,-3.5577,-3.56,-3.5596,-3.5706,-3.5746,-3.5821,-3.5834,-3.586,-3.5873,-3.5861,-3.5919,-3.5924,-3.5929,-3.5946,-3.5953,-3.5874,-3.5874,-3.5874,-3.5874,0,-3.5268,-3.5322,-3.5356,-3.5426,-3.5465,-3.5517,-3.5559,-3.5594,-3.5612,-3.5643,-3.5708,-3.5757,-3.5817,-3.5837,-3.5855,-3.5914,-3.5909,-3.5912,-3.5902,-3.5934,-3.5951,-3.5958,-3.5874,-3.5874,-3.5874,-3.5874,0,0,-3.5302,-3.5391,-3.5403,-3.5434,-3.5502,-3.5544,-3.5596,-3.5655,-3.5683,-3.5733,-3.5776,-3.585,-3.5852,-3.5887,-3.591,-3.594,-3.5978,-3.5939,-3.5941,-3.5942,-3.6043,-3.6039,-3.6046,-3.5986,-3.5988,-3.5989,-3.6037,0,-3.5351,-3.5446,-3.5479,-3.5556,-3.5605,-3.5629,-3.5674,-3.5719,-3.575,-3.5794,-3.5828,-3.5879,-3.5879,-3.59,-3.5931,-3.5967,-3.5998,-3.5964,-3.6025,-3.6026,-3.6008,-3.6055,-3.6052,-3.6096,-3.6044,-3.6045,-3.6046,0,-3.5422,-3.5472,-3.5554,-3.5614,-3.5635,-3.5675,-3.5731,-3.5775,-3.5826,-3.5846,-3.5885,-3.5905,-3.5958,-3.5947,-3.6019,-3.5995,-3.6022,-3.6043,-3.6046,-3.6051,-3.6037,-3.606,-3.6111,-3.6116,-3.6057,-3.6056,-3.6056,0,-3.5435,-3.5524,-3.5584,-3.561,-3.5682,-3.5709,-3.574,-3.5791,-3.5824,-3.5872,-3.5894,-3.5948,-3.5977,-3.6018,-3.6051,-3.604,-3.612,-3.6112,-3.6136,-3.6135,-3.6151,-3.6149,-3.6204,-3.6171,-3.6171,-3.6171,-3.6171,0,-3.5486,-3.5534,-3.5591,-3.5627,-3.5681,-3.5719,-3.5771,-3.5804,-3.5848,-3.589,-3.5914,-3.5953,-3.5996,-3.604,-3.6067,-3.6121,-3.6135,-3.6151,-3.6157,-3.6148,-3.6145,-3.6164,-3.6162,-3.6172,-3.6172,-3.6172,-3.6171,0,-3.5509,-3.555,-3.5616,-3.5679,-3.5695,-3.5733,-3.5786,-3.5821,-3.5852,-3.5905,-3.592,-3.5968,-3.6021,-3.6059,-3.6127,-3.6145,-3.6203,-3.621,-3.6185,-3.6188,-3.621,-3.6206,-3.6277,-3.6288,-3.6249,-3.625,-3.625,0,-3.5538,-3.5576,-3.5642,-3.5672,-3.5704,-3.5752,-3.5786,-3.5824,-3.5857,-3.5918,-3.5945,-3.6,-3.6045,-3.6128,-3.6169,-3.622,-3.6228,-3.6249,-3.6235,-3.6224,-3.6225,-3.6222,-3.6225,-3.625,-3.625,-3.6251,-3.6251,0,-3.5583,-3.5601,-3.5649,-3.5704,-3.5743,-3.5788,-3.5833,-3.5856,-3.5901,-3.5938,-3.5992,-3.6027,-3.6097,-3.6149,-3.6205,-3.6235,-3.625,-3.6255,-3.6263,-3.6253,-3.6236,-3.6243,-3.6189,-3.6253,-3.6253,-3.6252,-3.6252,-3.6252,-3.5609,-3.5643,-3.5695,-3.5747,-3.5785,-3.5826,-3.5862,-3.5897,-3.5944,-3.6003,-3.6023,-3.6078,-3.6127,-3.6203,-3.6234,-3.6277,-3.6276,-3.6288,-3.6291,-3.6293,-3.6291,-3.6231,-3.6287,-3.6287,-3.6287,-3.6287,-3.6287,0,-3.5654,-3.5688,-3.5736,-3.5798,-3.5838,-3.585,-3.59,-3.5932,-3.5981,-3.6026,-3.607,-3.6131,-3.6182,-3.6227,-3.628,-3.6305,-3.6313,-3.6318,-3.6315,-3.6322,-3.629,-3.6277,-3.631,-3.631,-3.631,-3.631,-3.631,-3.631,-3.5682,-3.5739,-3.5763,-3.5838,-3.5872,-3.5927,-3.5954,-3.5992,-3.6027,-3.6095,-3.6138,-3.6167,-3.6211,-3.6267,-3.6313,-3.6325,-3.6342,-3.6345,-3.6358,-3.6327,-3.6324,-3.6321,-3.6309,-3.6349,-3.6349,-3.6386,-3.6386,-3.6386]},{"header":{"parameterUnit":"m.s-1","parameterCategory":1,"la1":30.2991,"la2":30.254,"lo1":-89.0895,"lo2":-89.0444,"dy":0.0017,"dx":0.0017,"nx":28,"ny":28,"refTime":"2025-07-24T03:00:00:Z","depth":0,"parameterNumber":3,"parameterNumberName":"V-component_of_WINDS"},"data":[0,0,0,0,0,0,0,0,0,0,0,0,0,0,0,0,0,0,0,0,0,0,0,0,0,0,0,0,0,0,0,0,0,0,0,0,0,0,0,0,0,0,0,0,0,0,0,0,0,0,0,0,0,0,0,0,0,0,5.1648,5.165,0,5.1788,5.179,5.1791,5.1736,5.1732,5.1729,5.1726,5.1867,5.1874,5.1881,0,0,0,0,0,0,0,0,0,0,0,0,0,5.1329,5.1335,5.1648,5.165,5.1651,5.1788,5.179,5.1792,5.1736,5.1732,5.1728,5.1724,5.1865,5.1873,5.1881,0,0,0,0,0,0,0,0,0,0,0,0,0,5.1468,5.1337,5.1648,5.164,5.1641,5.1788,5.179,5.1792,5.1737,5.1732,5.1727,5.1722,5.1862,5.1872,5.1882,5.2044,0,0,5.1914,5.1918,0,0,0,0,0,0,0,0,5.146,5.148,5.1639,5.1641,5.1642,5.1739,5.1729,5.1877,5.1738,5.17,5.1726,5.172,5.1828,5.1841,5.1878,5.205,5.2056,5.1914,5.1921,5.1925,5.1928,0,0,0,0,0,0,0,5.1451,5.1473,5.1703,5.1642,5.1643,5.1629,5.1643,5.1757,5.179,5.1703,5.17,5.1717,5.1828,5.1868,5.1881,5.2059,5.1914,5.1923,5.193,5.1934,5.2369,5.2374,0,0,0,0,0,0,5.1441,5.1466,5.1699,5.1707,5.1537,5.1639,5.1655,5.1713,5.1789,5.1796,5.1721,5.1714,5.1853,5.1869,5.1886,5.2078,5.1925,5.1935,5.194,5.2363,5.237,5.2376,0,0,0,0,0,0,5.1434,5.1462,5.1693,5.1586,5.1614,5.1649,5.1715,5.1718,5.1759,5.1802,5.1808,5.1756,5.185,5.1871,5.2005,5.2083,5.1939,5.1948,5.2357,5.2365,5.2373,5.2466,0,0,0,0,0,0,5.1426,5.146,5.1523,5.1588,5.162,5.1811,5.172,5.1725,5.1777,5.1769,5.1837,5.1843,5.1848,5.199,5.2015,5.2094,5.1956,5.235,5.2361,5.237,5.2456,5.2476,5.2494,0,0,0,0,0,5.1414,5.1543,5.1526,5.1555,5.1699,5.1816,5.1834,5.1837,5.1783,5.1846,5.1874,5.1841,5.2071,5.2004,5.2032,5.2115,5.2345,5.2358,5.2369,5.2448,5.2472,5.2493,0,0,0,0,0,0,5.1486,5.1552,5.1534,5.1688,5.1747,5.1806,5.1885,5.1863,5.1938,5.1927,5.1928,5.1944,5.2081,5.2111,5.2036,5.2275,5.2199,5.2218,5.2249,5.2273,5.2292,5.228,5.1965,0,0,0,0,0,5.152,5.161,5.1662,5.1793,5.1824,5.185,5.19,5.1898,5.1958,5.1983,5.202,5.208,5.2165,5.2221,5.2302,5.2461,5.2474,5.2532,5.2551,5.2566,5.2581,5.2666,5.2691,5.2416,5.2416,5.2415,0,0,5.1591,5.1638,5.1695,5.1809,5.1854,5.1946,5.1871,5.1972,5.2039,5.1998,5.2125,5.2156,5.2222,5.2368,5.2434,5.2398,5.266,5.2581,5.2593,5.26,5.2681,5.2707,5.273,5.2424,5.2422,5.2421,0,0,5.1767,5.1812,5.1925,5.1972,5.2042,5.2058,5.2085,5.2148,5.2166,5.2295,5.2265,5.2346,5.2493,5.2541,5.2584,5.2778,5.275,5.2804,5.2901,5.2984,5.3006,5.3025,5.3092,5.3117,5.282,5.282,5.282,0,5.1845,5.1984,5.1986,5.2089,5.2139,5.2107,5.222,5.2266,5.2358,5.2393,5.2351,5.2535,5.2577,5.2733,5.278,5.2817,5.2847,5.2795,5.3003,5.3022,5.304,5.3104,5.3129,5.2826,5.2825,5.2825,5.2824,0,5.2076,5.2172,5.2255,5.2345,5.2405,5.2513,5.2531,5.2591,5.2583,5.2604,5.2734,5.2784,5.2874,5.2911,5.2905,5.3066,5.3041,5.3002,5.2925,5.3072,5.3132,5.3157,5.2834,5.2832,5.283,5.2829,0,0,5.23,5.239,5.242,5.246,5.2535,5.2608,5.2714,5.2803,5.2853,5.2919,5.3006,5.3132,5.3095,5.3144,5.3143,5.3216,5.3364,5.3166,5.3168,5.32,5.3543,5.3571,5.36,5.3346,5.3351,5.3355,5.3537,0,5.248,5.2666,5.2671,5.2841,5.2929,5.2899,5.2991,5.3046,5.3068,5.3145,5.3169,5.3257,5.3203,5.3232,5.3303,5.3331,5.3432,5.3318,5.3427,5.343,5.3409,5.3632,5.3662,5.3832,5.3561,5.3565,5.3568,0,5.2715,5.2787,5.2966,5.3026,5.3063,5.3146,5.3227,5.3301,5.3363,5.3373,5.3429,5.3416,5.3523,5.3445,5.3592,5.3514,5.3559,5.3579,5.3586,5.3595,5.3507,5.3645,5.3886,5.3911,5.3605,5.3602,5.3599,0,5.2858,5.3,5.3125,5.316,5.3235,5.3293,5.3327,5.3383,5.3435,5.3506,5.354,5.3622,5.3666,5.373,5.374,5.3682,5.3886,5.3809,5.3897,5.3897,5.394,5.3937,5.419,5.3972,5.3972,5.3971,5.3971,0,5.3057,5.3168,5.319,5.3267,5.3389,5.3393,5.3514,5.3543,5.3593,5.3674,5.3654,5.373,5.3739,5.3818,5.3826,5.3945,5.3966,5.3977,5.3977,5.3978,5.3976,5.4006,5.3994,5.3978,5.3976,5.3975,5.3974,0,5.3237,5.3257,5.3391,5.345,5.3468,5.3555,5.3605,5.3678,5.3698,5.38,5.3825,5.3855,5.3947,5.3963,5.4071,5.4077,5.4219,5.4208,5.4198,5.4196,5.4282,5.4273,5.4562,5.4599,5.4359,5.4361,5.4363,0,5.3363,5.3447,5.3515,5.3567,5.3604,5.369,5.3743,5.375,5.3806,5.3882,5.3945,5.4035,5.4106,5.4254,5.4285,5.4368,5.4358,5.4453,5.437,5.4367,5.4357,5.4352,5.4359,5.4469,5.4471,5.4474,5.4475,0,5.3582,5.3587,5.3665,5.3747,5.3811,5.3875,5.3936,5.3981,5.3996,5.406,5.4153,5.4209,5.4319,5.4407,5.4489,5.4522,5.4502,5.4502,5.4526,5.4526,5.4516,5.4521,5.424,5.4494,5.4493,5.4491,5.449,5.4489,5.3737,5.381,5.3869,5.3956,5.4002,5.406,5.4131,5.4159,5.4237,5.4327,5.4327,5.4429,5.4487,5.4594,5.4633,5.4713,5.4682,5.4718,5.4726,5.4735,5.4742,5.4505,5.4728,5.4727,5.4727,5.4726,5.4726,0,5.3954,5.399,5.4071,5.4156,5.4224,5.4199,5.4265,5.4324,5.4414,5.447,5.4541,5.4648,5.4733,5.4772,5.4856,5.4912,5.4904,5.4934,5.4929,5.4937,5.4766,5.4735,5.4938,5.4938,5.4938,5.4938,5.4938,5.4938,5.4075,5.4196,5.4208,5.4352,5.4387,5.4487,5.4527,5.4579,5.4624,5.4744,5.4815,5.4839,5.4888,5.4976,5.5053,5.5062,5.5093,5.5127,5.5131,5.497,5.4949,5.4928,5.49,5.5134,5.5134,5.5296,5.5297,5.5298]}]]